{"data":{"norad_id":57254,"intl_designator":"2023-094AN","name":"STARLINK-5490","alt_names":[],"object_type":"PAYLOAD","status":"ACTIVE","operator":null,"country":"US","launch_date":"2023-07-07","launch_site_code":"AFWTR","launch_vehicle":null,"mission":null,"orbit_class":"UNKNOWN","rcs_meters":null,"size_class":null,"mass_kg":null,"dimensions":null,"purposes":["comms"],"wikipedia_slug":null,"has_3d_model":false,"image_url":null,"decayed_at":null,"tle_current":{"epoch":"2026-09-19T18:14:19.580640Z","epoch_age_seconds":188265,"freshness":"STALE","line1":"1 57254U 23094AN  26262.75994885  .00000315  00000+0  20983-4 0  9998","line2":"2 57254  43.0052   3.6090 0002415 270.8400  89.2175 15.27575348176924","mean_motion":15.27575348,"eccentricity":0.0002415,"inclination_deg":43.0052,"raan_deg":3.609,"arg_perigee_deg":270.84,"mean_anomaly_deg":89.2175,"bstar":2.0983e-5,"rev_number":17692,"period_min":94.267035788797,"perigee_km":481.40604603031,"apogee_km":484.72000564279,"semimajor_km":6861.2000258366,"source":"CELESTRAK","updated_at":"2026-09-21T09:00:33.592015Z"}}}